When you browse on this site, cookies collect data to enhance your experience and personalize the content and advertising you see.
Visit our Privacy Policy to learn more. By continuing to use the site, you agree to this use of cookies and data.
  • Em Portugal
  • Lista de países
  • Para 7 dias
  • Temperatura da água
  • Mapas de satélite
  • Mapa do tempo
  • Widgets de tempo
  • user-avatar
    Iniciar Sessão

    Previsão horária em Rybaltovo

    Hoje, 23 Maio, Quinta-feira

    Tempo Temperatura Precipitação Vento Pressão Humidade
    00:00 +14°C° 0 mm 0 m/s 739 mmHg 80%
    01:00 +14°C° 0 mm 0 m/s 739 mmHg 80%
    02:00 +14°C° 0 mm 1 m/s 738 mmHg 80%
    03:00 +14°C° 0 mm 1 m/s 738 mmHg 80%
    04:00 +14°C° 0 mm 1 m/s 738 mmHg 80%
    05:00 +14°C° 0 mm 1 m/s 738 mmHg 80%
    06:00 +16°C° 0 mm 1 m/s 739 mmHg 75%
    07:00 +19°C° 0 mm 1 m/s 739 mmHg 71%
    08:00 +20°C° 0 mm 2 m/s 739 mmHg 66%
    09:00 +21°C° 0 mm 2 m/s 739 mmHg 61%
    10:00 +23°C° 0 mm 2 m/s 739 mmHg 57%
    11:00 +25°C° 0 mm 3 m/s 739 mmHg 52%
    12:00 +25°C° 0 mm 3 m/s 739 mmHg 52%
    13:00 +25°C° 0 mm 3 m/s 739 mmHg 51%
    14:00 +25°C° 0 mm 3 m/s 738 mmHg 51%
    15:00 +25°C° 0 mm 3 m/s 738 mmHg 54%
    16:00 +25°C° 0 mm 3 m/s 738 mmHg 57%
    17:00 +25°C° 0 mm 2 m/s 738 mmHg 60%
    18:00 +23°C° 0.1 mm 2 m/s 738 mmHg 65%
    19:00 +20°C° 0.1 mm 2 m/s 738 mmHg 71%
    20:00 +18°C° 0.1 mm 2 m/s 738 mmHg 77%
    21:00 +18°C° 0 mm 1 m/s 738 mmHg 80%
    22:00 +18°C° 0 mm 1 m/s 738 mmHg 83%
    23:00 +16°C° 0 mm 1 m/s 738 mmHg 86%

    Amanhã, 24 Maio, Sexta-feira

    Tempo Temperatura Precipitação Vento Pressão Humidade
    00:00 +16°C° 0 mm 1 m/s 738 mmHg 87%
    01:00 +15°C° 0 mm 1 m/s 738 mmHg 88%
    02:00 +15°C° 0 mm 1 m/s 738 mmHg 90%
    03:00 +15°C° 0.1 mm 1 m/s 738 mmHg 90%
    04:00 +15°C° 0.1 mm 1 m/s 738 mmHg 90%
    05:00 +15°C° 0.1 mm 1 m/s 738 mmHg 90%
    06:00 +18°C° 0 mm 1 m/s 739 mmHg 86%
    07:00 +20°C° 0 mm 1 m/s 739 mmHg 81%
    08:00 +21°C° 0 mm 1 m/s 739 mmHg 76%
    09:00 +22°C° 1.6 mm 1 m/s 739 mmHg 72%
    10:00 +23°C° 1.6 mm 1 m/s 739 mmHg 68%
    11:00 +24°C° 1.6 mm 2 m/s 739 mmHg 65%
    12:00 +24°C° 1.7 mm 2 m/s 739 mmHg 64%
    13:00 +24°C° 1.7 mm 1 m/s 739 mmHg 64%
    14:00 +24°C° 1.7 mm 1 m/s 739 mmHg 64%
    15:00 +24°C° 1 mm 1 m/s 739 mmHg 68%
    16:00 +23°C° 1 mm 2 m/s 739 mmHg 72%
    17:00 +21°C° 1 mm 2 m/s 738 mmHg 76%
    18:00 +20°C° 0.2 mm 2 m/s 738 mmHg 80%
    19:00 +19°C° 0.2 mm 2 m/s 738 mmHg 83%
    20:00 +17°C° 0.2 mm 2 m/s 738 mmHg 87%
    21:00 +17°C° 0 mm 2 m/s 738 mmHg 89%
    22:00 +16°C° 0 mm 2 m/s 738 mmHg 90%
    23:00 +16°C° 0 mm 2 m/s 738 mmHg 92%

    Depois de amanhã, 25 Maio, Sábado

    Tempo Temperatura Precipitação Vento Pressão Humidade
    00:00 +15°C° 0.1 mm 2 m/s 738 mmHg 92%
    01:00 +15°C° 0.1 mm 2 m/s 738 mmHg 93%
    02:00 +15°C° 0.1 mm 2 m/s 738 mmHg 93%
    03:00 +15°C° 0.2 mm 2 m/s 737 mmHg 93%
    04:00 +15°C° 0.2 mm 2 m/s 737 mmHg 93%
    05:00 +15°C° 0.2 mm 1 m/s 737 mmHg 92%
    06:00 +16°C° 0.2 mm 1 m/s 737 mmHg 89%
    07:00 +19°C° 0.2 mm 1 m/s 737 mmHg 85%
    08:00 +20°C° 0.2 mm 1 m/s 737 mmHg 82%
    09:00 +20°C° 0.7 mm 2 m/s 737 mmHg 79%
    10:00 +21°C° 0.7 mm 2 m/s 737 mmHg 76%
    11:00 +23°C° 0.7 mm 2 m/s 737 mmHg 73%
    12:00 +21°C° 1.7 mm 2 m/s 736 mmHg 76%
    13:00 +20°C° 1.7 mm 2 m/s 736 mmHg 79%
    14:00 +20°C° 1.7 mm 2 m/s 736 mmHg 83%
    15:00 +20°C° 0.7 mm 2 m/s 736 mmHg 83%
    16:00 +19°C° 0.7 mm 2 m/s 735 mmHg 84%
    17:00 +20°C° 0.7 mm 1 m/s 735 mmHg 84%
    18:00 +19°C° 0.1 mm 1 m/s 735 mmHg 86%
    19:00 +18°C° 0.1 mm 1 m/s 735 mmHg 88%
    20:00 +16°C° 0.1 mm 1 m/s 735 mmHg 89%
    21:00 +15°C° 0 mm 2 m/s 735 mmHg 90%
    22:00 +13°C° 0 mm 3 m/s 735 mmHg 90%
    23:00 +12°C° 0 mm 3 m/s 735 mmHg 90%

    26 Maio, Domingo

    Tempo Temperatura Precipitação Vento Pressão Humidade
    00:00 +12°C° 0 mm 3 m/s 735 mmHg 91%
    01:00 +11°C° 0 mm 4 m/s 735 mmHg 93%
    02:00 +10°C° 0 mm 4 m/s 735 mmHg 95%
    03:00 +10°C° 0 mm 3 m/s 736 mmHg 94%
    04:00 +9°C° 0 mm 3 m/s 736 mmHg 94%
    05:00 +8°C° 0 mm 3 m/s 736 mmHg 94%
    06:00 +10°C° 0 mm 3 m/s 736 mmHg 89%
    07:00 +11°C° 0 mm 3 m/s 736 mmHg 85%
    08:00 +12°C° 0 mm 4 m/s 736 mmHg 80%
    09:00 +13°C° 0 mm 4 m/s 736 mmHg 75%
    10:00 +15°C° 0 mm 5 m/s 736 mmHg 71%
    11:00 +16°C° 0 mm 5 m/s 736 mmHg 66%
    12:00 +16°C° 0.1 mm 5 m/s 736 mmHg 65%
    13:00 +17°C° 0.1 mm 5 m/s 736 mmHg 64%
    14:00 +17°C° 0.1 mm 5 m/s 735 mmHg 63%
    15:00 +17°C° 0.3 mm 5 m/s 735 mmHg 66%
    16:00 +17°C° 0.3 mm 5 m/s 735 mmHg 70%
    17:00 +16°C° 0.3 mm 5 m/s 735 mmHg 73%
    18:00 +15°C° 0.7 mm 5 m/s 735 mmHg 80%
    19:00 +13°C° 0.7 mm 5 m/s 734 mmHg 86%
    20:00 +10°C° 0.7 mm 5 m/s 734 mmHg 92%
    21:00 +9°C° 0.3 mm 5 m/s 734 mmHg 93%
    22:00 +8°C° 0.3 mm 4 m/s 734 mmHg 93%
    23:00 +8°C° 0.3 mm 4 m/s 734 mmHg 94%

    27 Maio, Segunda-feira

    Tempo Temperatura Precipitação Vento Pressão Humidade
    00:00 +7°C° 0.2 mm 4 m/s 735 mmHg 93%
    01:00 +7°C° 0.2 mm 4 m/s 735 mmHg 92%
    02:00 +6°C° 0.2 mm 4 m/s 735 mmHg 92%
    03:00 +6°C° 0 mm 5 m/s 735 mmHg 92%
    04:00 +6°C° 0 mm 5 m/s 736 mmHg 93%
    05:00 +5°C° 0 mm 5 m/s 736 mmHg 94%
    06:00 +6°C° 0 mm 5 m/s 737 mmHg 89%
    07:00 +7°C° 0 mm 6 m/s 737 mmHg 85%
    08:00 +8°C° 0 mm 6 m/s 737 mmHg 80%
    09:00 +9°C° 0 mm 6 m/s 738 mmHg 78%
    10:00 +10°C° 0 mm 6 m/s 739 mmHg 75%
    11:00 +11°C° 0 mm 6 m/s 739 mmHg 72%
    12:00 +11°C° 0 mm 6 m/s 740 mmHg 73%
    13:00 +12°C° 0 mm 5 m/s 740 mmHg 73%
    14:00 +13°C° 0 mm 5 m/s 740 mmHg 73%
    15:00 +13°C° 0 mm 5 m/s 740 mmHg 73%
    16:00 +13°C° 0 mm 4 m/s 741 mmHg 74%
    17:00 +14°C° 0 mm 4 m/s 741 mmHg 74%
    18:00 +13°C° 0 mm 3 m/s 741 mmHg 78%
    19:00 +12°C° 0 mm 3 m/s 741 mmHg 82%
    20:00 +12°C° 0 mm 2 m/s 742 mmHg 85%
    21:00 +10°C° 0 mm 2 m/s 742 mmHg 88%
    22:00 +10°C° 0 mm 2 m/s 742 mmHg 90%
    23:00 +9°C° 0 mm 2 m/s 742 mmHg 93%

    28 Maio, Terça-feira

    Tempo Temperatura Precipitação Vento Pressão Humidade
    00:00 +9°C° 0 mm 2 m/s 742 mmHg 93%
    01:00 +8°C° 0 mm 3 m/s 742 mmHg 93%
    02:00 +8°C° 0 mm 3 m/s 742 mmHg 94%
    03:00 +9°C° 0 mm 3 m/s 742 mmHg 93%
    04:00 +9°C° 0 mm 3 m/s 742 mmHg 92%
    05:00 +9°C° 0 mm 3 m/s 742 mmHg 92%
    06:00 +11°C° 0 mm 4 m/s 742 mmHg 87%
    07:00 +13°C° 0 mm 4 m/s 742 mmHg 81%
    08:00 +15°C° 0 mm 4 m/s 742 mmHg 76%
    09:00 +16°C° 0 mm 5 m/s 742 mmHg 73%
    10:00 +17°C° 0 mm 5 m/s 742 mmHg 70%
    11:00 +19°C° 0 mm 6 m/s 741 mmHg 67%
    12:00 +17°C° 0.7 mm 6 m/s 741 mmHg 74%
    13:00 +16°C° 0.7 mm 6 m/s 741 mmHg 82%
    14:00 +15°C° 0.7 mm 6 m/s 740 mmHg 89%
    15:00 +15°C° 2.3 mm 6 m/s 740 mmHg 90%
    16:00 +15°C° 2.3 mm 6 m/s 739 mmHg 92%
    17:00 +15°C° 2.3 mm 7 m/s 738 mmHg 93%
    18:00 +16°C° 0.5 mm 6 m/s 738 mmHg 93%
    19:00 +17°C° 0.5 mm 6 m/s 738 mmHg 92%
    20:00 +17°C° 0.5 mm 5 m/s 738 mmHg 92%
    21:00 +17°C° 0.8 mm 5 m/s 738 mmHg 93%
    22:00 +18°C° 0.8 mm 4 m/s 738 mmHg 94%
    23:00 +17°C° 0.8 mm 4 m/s 737 mmHg 95%
    Mostrar mais